パンスターズ彗星

C/2017 X1 ( PanSTARRS )

English version
Home page
Updated on March 5, 2020

---------------------------------------------------------------------

・ プロフィール

発見日 2017年12月12日
発見光度 20.2等
発見者 Pan-STARRS 1 telescope (Haleakala)

・ 軌道要素

Epoch 2018 June 11.0 TT = JDT 2458280.5                                         
T 2018 June 14.53384 TT                                 Williams                
q   4.6625706            (2000.0)            P               Q                  
n   0.00562307     Peri.  283.11765     -0.86074460     -0.13155505             
a  31.3199118      Node   251.12713     +0.25123275     -0.94996280             
e   0.8511308      Incl.   31.31097     -0.44271981     -0.28330893             
P 175                                                                           
From 83 observations 2017 Dec. 12-2019 July 25, mean residual 0".3.             

・ 光度変化

        m1 = 3.5 + 5 logΔ + 18 log r(t + 50)

---------------------------------------------------------------------

軌道要素はM.P.E.C. 2019-T169に掲載されたものです。
光度グラフはComet for Windowsで作成したものです。

---------------------------------------------------------------------

Copyright(C) Seiichi Yoshida (comet@aerith.net). All rights reserved.